Location: Apthorp Dam
(44.3084°N, 71.7462°W)
Time: 16:24:13
(UTC+00:00)

Envisat - Visible Passes

Search period start: 06 October 2024 00:00
Search period end: 16 October 2024 00:00
Orbit: 762 x 764 km, 98.3° (Epoch: 06 October)

Date Brightness Start Highest point End Pass type
(mag) Time Alt. Az. Time Alt. Az. Time Alt. Az.
06 Oct 4.3 07:35:31 10° NNE 07:38:51 37° NE 07:38:51 37° NE visible
06 Oct 4.2 09:15:13 10° NNW 09:18:59 22° WNW 09:18:59 22° WNW visible
07 Oct 5.4 06:58:43 10° NE 07:00:48 19° ENE 07:00:48 19° ENE visible
07 Oct 3.6 08:37:04 10° N 08:40:57 40° NW 08:40:57 40° NW visible
08 Oct 3.8 07:59:24 10° NNE 08:02:53 45° NNE 08:02:53 45° NNE visible
08 Oct 4.7 09:40:10 10° NNW 09:42:46 14° WNW 09:43:02 14° WNW visible
09 Oct 4.9 07:22:12 10° NNE 07:24:50 27° NE 07:24:50 27° NE visible
09 Oct 4.1 09:01:26 10° N 09:04:58 27° NW 09:04:58 27° NW visible
10 Oct 5.8 06:45:44 10° NE 06:46:47 13° ENE 06:46:47 13° ENE visible
10 Oct 3.8 08:23:29 10° N 08:26:55 41° NNW 08:26:55 41° NNW visible
11 Oct 4.4 07:45:58 10° NNE 07:48:51 34° NNE 07:48:51 34° NNE visible
11 Oct 4.5 09:26:05 10° NNW 09:29:00 18° NW 09:29:00 18° NW visible
12 Oct 5.4 07:08:57 10° NE 07:10:47 19° NE 07:10:47 19° NE visible
12 Oct 4.0 08:47:43 10° N 08:50:56 30° NW 08:50:56 30° NW visible
13 Oct 4.1 08:09:55 10° N 08:12:52 36° N 08:12:52 36° N visible
13 Oct 4.9 09:51:29 10° NW 09:53:00 11° NW 09:53:00 11° NW visible
14 Oct 4.9 07:32:33 10° NNE 07:34:48 25° NE 07:34:48 25° NE visible
14 Oct 4.4 09:12:10 10° NNW 09:14:56 21° NW 09:14:56 21° NW visible
15 Oct 5.8 06:55:48 10° NE 06:56:43 14° NE 06:56:43 14° NE visible
15 Oct 4.2 08:34:03 10° N 08:36:52 31° NNW 08:36:52 31° NNW visible
